When you browse on this site, cookies collect data to enhance your experience and personalize the content and advertising you see.
Visit our Privacy Policy to learn more. By continuing to use the site, you agree to this use of cookies and data.
  • In Romania
  • List of Countries
  • For 7 days
  • Water Temperature
  • Satellite Maps
  • Weather Map
  • Weather Widgets
  • user-avatar
    Login

    Hourly Weather Krutye Slancy

    Today, 17 November, Saturday

    Time Temperature Precipitation Wind Pressure Humidity
    00:00 -5°C° 0 mm 3 mps 768 mmHg 29%
    01:00 -5°C° 0 mm 3 mps 768 mmHg 29%
    02:00 -5°C° 0 mm 2 mps 768 mmHg 29%
    03:00 -5°C° 0 mm 2 mps 768 mmHg 29%
    04:00 -5°C° 0 mm 2 mps 768 mmHg 29%
    05:00 -5°C° 0 mm 2 mps 767 mmHg 29%
    06:00 -5°C° 0 mm 2 mps 767 mmHg 28%
    07:00 -5°C° 0 mm 2 mps 767 mmHg 28%
    08:00 -4°C° 0 mm 2 mps 767 mmHg 27%
    09:00 -2°C° 0 mm 1 mps 766 mmHg 26%
    10:00 -1°C° 0 mm 1 mps 766 mmHg 24%
    11:00 +1°C° 0 mm 1 mps 766 mmHg 22%
    12:00 +2°C° 0 mm 1 mps 766 mmHg 19%
    13:00 +2°C° 0 mm 1 mps 765 mmHg 21%
    14:00 +2°C° 0 mm 1 mps 765 mmHg 23%
    15:00 +2°C° 0 mm 1 mps 764 mmHg 24%
    16:00 +1°C° 0 mm 1 mps 763 mmHg 25%
    17:00 0°C° 0 mm 1 mps 763 mmHg 26%
    18:00 -1°C° 0 mm 1 mps 763 mmHg 26%
    19:00 -1°C° 0 mm 1 mps 762 mmHg 26%
    20:00 -1°C° 0 mm 1 mps 762 mmHg 26%
    21:00 -1°C° 0 mm 1 mps 761 mmHg 25%
    22:00 -3°C° 0 mm 2 mps 761 mmHg 26%
    23:00 -3°C° 0 mm 2 mps 760 mmHg 26%

    Tomorrow, 18 November, Sunday

    Time Temperature Precipitation Wind Pressure Humidity
    00:00 -4°C° 0 mm 2 mps 759 mmHg 26%
    01:00 -5°C° 0 mm 3 mps 759 mmHg 26%
    02:00 -5°C° 0 mm 3 mps 758 mmHg 27%
    03:00 -5°C° 0 mm 3 mps 758 mmHg 27%
    04:00 -5°C° 0 mm 3 mps 757 mmHg 28%
    05:00 -5°C° 0 mm 3 mps 756 mmHg 29%
    06:00 -6°C° 0 mm 3 mps 756 mmHg 30%
    07:00 -5°C° 0 mm 3 mps 755 mmHg 30%
    08:00 -5°C° 0 mm 3 mps 755 mmHg 30%
    09:00 -5°C° 0 mm 3 mps 755 mmHg 30%
    10:00 -4°C° 0 mm 3 mps 755 mmHg 30%
    11:00 -2°C° 0 mm 3 mps 755 mmHg 29%
    12:00 -2°C° 0 mm 4 mps 755 mmHg 28%
    13:00 -1°C° 0 mm 3 mps 754 mmHg 30%
    14:00 0°C° 0 mm 3 mps 754 mmHg 32%
    15:00 +1°C° 0 mm 2 mps 754 mmHg 34%
    16:00 -1°C° 0 mm 2 mps 754 mmHg 37%
    17:00 -2°C° 0 mm 2 mps 754 mmHg 41%
    18:00 -3°C° 0 mm 2 mps 754 mmHg 44%
    19:00 -3°C° 0 mm 2 mps 754 mmHg 45%
    20:00 -3°C° 0 mm 2 mps 754 mmHg 46%
    21:00 -3°C° 0 mm 2 mps 754 mmHg 47%
    22:00 -4°C° 0 mm 2 mps 754 mmHg 48%
    23:00 -4°C° 0 mm 2 mps 755 mmHg 48%

    Day after tomorrow, 19 November, Monday

    Time Temperature Precipitation Wind Pressure Humidity
    00:00 -4°C° 0 mm 2 mps 755 mmHg 49%
    01:00 -2°C° 0 mm 1 mps 755 mmHg 49%
    02:00 -2°C° 0 mm 1 mps 755 mmHg 50%
    03:00 -2°C° 0 mm 1 mps 755 mmHg 50%
    04:00 -2°C° 0 mm 1 mps 755 mmHg 50%
    05:00 -3°C° 0 mm 1 mps 756 mmHg 51%
    06:00 -3°C° 0 mm 1 mps 756 mmHg 51%
    07:00 -2°C° 0 mm 1 mps 756 mmHg 50%
    08:00 -2°C° 0 mm 1 mps 757 mmHg 49%
    09:00 -2°C° 0 mm 1 mps 757 mmHg 48%
    10:00 -1°C° 0 mm 1 mps 758 mmHg 44%
    11:00 0°C° 0 mm 1 mps 758 mmHg 41%
    12:00 +1°C° 0 mm 2 mps 758 mmHg 38%
    13:00 +2°C° 0 mm 1 mps 758 mmHg 39%
    14:00 +2°C° 0 mm 1 mps 758 mmHg 40%
    15:00 +2°C° 0 mm 1 mps 759 mmHg 42%
    16:00 -1°C° 0 mm 2 mps 759 mmHg 44%
    17:00 -2°C° 0 mm 2 mps 759 mmHg 47%
    18:00 -2°C° 0 mm 2 mps 759 mmHg 50%
    19:00 -3°C° 0 mm 2 mps 759 mmHg 50%
    20:00 -3°C° 0 mm 2 mps 759 mmHg 51%
    21:00 -3°C° 0 mm 2 mps 760 mmHg 51%
    22:00 -3°C° 0 mm 2 mps 760 mmHg 50%
    23:00 -3°C° 0 mm 2 mps 760 mmHg 48%

    20 November, Tuesday

    Time Temperature Precipitation Wind Pressure Humidity
    00:00 -3°C° 0 mm 2 mps 760 mmHg 47%
    01:00 -3°C° 0 mm 2 mps 760 mmHg 46%
    02:00 -3°C° 0 mm 2 mps 760 mmHg 46%
    03:00 -3°C° 0 mm 2 mps 761 mmHg 45%
    04:00 -3°C° 0 mm 2 mps 760 mmHg 43%
    05:00 -3°C° 0 mm 2 mps 760 mmHg 42%
    06:00 -3°C° 0 mm 2 mps 760 mmHg 40%
    07:00 -4°C° 0 mm 3 mps 760 mmHg 40%
    08:00 -4°C° 0 mm 3 mps 760 mmHg 39%
    09:00 -2°C° 0 mm 3 mps 761 mmHg 38%
    10:00 -2°C° 0 mm 3 mps 760 mmHg 43%
    11:00 -2°C° 0 mm 3 mps 760 mmHg 48%
    12:00 -1°C° 0 mm 3 mps 760 mmHg 53%
    13:00 -1°C° 0 mm 3 mps 759 mmHg 53%
    14:00 -1°C° 0 mm 3 mps 759 mmHg 53%
    15:00 -1°C° 0 mm 3 mps 759 mmHg 53%
    16:00 -1°C° 0 mm 3 mps 759 mmHg 51%
    17:00 -1°C° 0 mm 3 mps 758 mmHg 49%
    18:00 -2°C° 0 mm 3 mps 758 mmHg 46%
    19:00 -2°C° 0 mm 3 mps 758 mmHg 50%
    20:00 -2°C° 0 mm 3 mps 758 mmHg 53%
    21:00 -2°C° 0 mm 3 mps 758 mmHg 57%
    22:00 -2°C° 0 mm 2 mps 757 mmHg 64%
    23:00 -3°C° 0 mm 2 mps 757 mmHg 71%

    21 November, Wednesday

    Time Temperature Precipitation Wind Pressure Humidity
    00:00 -3°C° 0 mm 2 mps 757 mmHg 78%
    01:00 -3°C° 0 mm 2 mps 756 mmHg 80%
    02:00 -3°C° 0 mm 2 mps 756 mmHg 83%
    03:00 -3°C° 0 mm 2 mps 756 mmHg 86%
    04:00 -3°C° 0 mm 2 mps 756 mmHg 87%
    05:00 -3°C° 0 mm 2 mps 755 mmHg 88%
    06:00 -3°C° 0 mm 2 mps 755 mmHg 89%
    07:00 -1°C° 0 mm 1 mps 755 mmHg 89%
    08:00 -1°C° 0 mm 1 mps 755 mmHg 89%
    09:00 -1°C° 0 mm 1 mps 755 mmHg 89%
    10:00 0°C° 0 mm 1 mps 755 mmHg 86%
    11:00 +1°C° 0 mm 1 mps 754 mmHg 83%
    12:00 +1°C° 0 mm 1 mps 754 mmHg 79%
    13:00 +1°C° 0 mm 1 mps 754 mmHg 80%
    14:00 +1°C° 0 mm 1 mps 754 mmHg 81%
    15:00 -1°C° 0 mm 2 mps 754 mmHg 81%
    16:00 -1°C° 0 mm 2 mps 753 mmHg 84%
    17:00 -2°C° 0 mm 2 mps 753 mmHg 86%
    18:00 -2°C° 0 mm 2 mps 753 mmHg 89%
    19:00 -2°C° 0 mm 2 mps 753 mmHg 89%
    20:00 -3°C° 0 mm 2 mps 753 mmHg 89%
    21:00 -3°C° 0 mm 2 mps 753 mmHg 89%
    22:00 -3°C° 0 mm 2 mps 753 mmHg 88%
    23:00 -3°C° 0 mm 2 mps 753 mmHg 87%

    22 November, Thursday

    Time Temperature Precipitation Wind Pressure Humidity
    00:00 -3°C° 0 mm 2 mps 753 mmHg 86%
    01:00 -3°C° 0 mm 2 mps 753 mmHg 86%
    02:00 -3°C° 0 mm 2 mps 753 mmHg 85%
    03:00 -3°C° 0 mm 2 mps 753 mmHg 85%
    04:00 -4°C° 0 mm 3 mps 753 mmHg 85%
    05:00 -4°C° 0 mm 3 mps 753 mmHg 84%
    06:00 -5°C° 0 mm 3 mps 753 mmHg 84%
    07:00 -5°C° 0 mm 3 mps 753 mmHg 83%
    08:00 -5°C° 0 mm 3 mps 753 mmHg 83%
    09:00 -5°C° 0 mm 4 mps 753 mmHg 82%
    10:00 -4°C° 0 mm 4 mps 753 mmHg 78%
    11:00 -3°C° 0 mm 4 mps 753 mmHg 74%
    12:00 -3°C° 0 mm 4 mps 754 mmHg 70%
    13:00 -2°C° 0 mm 3 mps 753 mmHg 70%
    14:00 -2°C° 0 mm 3 mps 753 mmHg 69%
    15:00 -2°C° 0 mm 3 mps 753 mmHg 69%
    16:00 -4°C° 0 mm 3 mps 754 mmHg 72%
    17:00 -4°C° 0 mm 3 mps 754 mmHg 76%
    18:00 -5°C° 0 mm 3 mps 754 mmHg 80%
    19:00 -5°C° 0 mm 3 mps 754 mmHg 80%
    20:00 -5°C° 0 mm 3 mps 754 mmHg 81%
    21:00 -6°C° 0 mm 3 mps 755 mmHg 81%
    22:00 -5°C° 0 mm 2 mps 755 mmHg 81%
    23:00 -5°C° 0 mm 2 mps 755 mmHg 80%
    Show more